Home   Weather   USA   Waxahachie   Past weeks
Flag for USA

Past Weather in Waxahachie, Texas, USA — Yesterday and Last 2 Weeks

Currently: 89 °F. Scattered clouds. (Weather station: Mid-Way Regional Airport, USA). See more current weather

Past Weather in Waxahachie — Graph

°F

Waxahachie Temperature Yesterday

Maximum temperature yesterday: 85 °F (at 2:15 pm)
Minimum temperature yesterday: 71 °F (at 6:15 am)
Average temperature yesterday: 78 °F

High & Low Weather Summary for the Past Weeks

 TemperatureHumidityPressure
High94 °F (Jun 8, 3:55 pm)97% (Jun 8, 3:35 am)30.20 "Hg (Jun 8, 3:35 am)
Low65 °F (Jun 6, 6:15 am)36% (Jun 6, 4:15 pm)29.78 "Hg (Jun 17, 5:35 pm)
Average81 °F72%29.93 "Hg
* Reported Jun 5 3:35 pm — Jun 20 3:35 pm, Waxahachie. Weather by CustomWeather, © 2024

Note: Actual official high and low records may vary slightly from our data, if they occured in-between our weather recording intervals... More about our weather records

Waxahachie Weather History for the Previous 24 Hours

Scroll right to see more
 ConditionsComfort  
Time TempWeatherWind HumidityBarometerVisibility
3:35 pm
Thu, Jun 20
88 °FScattered clouds.6 mph58%30.16 "Hg7 mi
3:15 pm88 °FScattered clouds.3 mph57%30.16 "Hg8 mi
2:55 pm89 °FScattered clouds.5 mph55%30.16 "Hg9 mi
2:35 pm88 °FScattered clouds.7 mph56%30.17 "Hg8 mi
2:15 pm87 °FScattered clouds.7 mph57%30.18 "Hg9 mi
1:55 pm87 °FScattered clouds.8 mph59%30.18 "Hg10 mi
1:35 pm87 °FBroken clouds.6 mph57%30.19 "Hg10 mi
1:15 pm87 °FBroken clouds.7 mph61%30.19 "Hg10 mi
12:55 pm87 °FBroken clouds.6 mph59%30.19 "Hg10 mi
12:35 pm85 °FPartly sunny.6 mph65%30.20 "Hg10 mi
12:15 pm84 °FBroken clouds.6 mph67%30.20 "Hg10 mi
11:55 am84 °FBroken clouds.6 mph67%30.20 "Hg10 mi
11:35 am84 °FBroken clouds.6 mph68%30.20 "Hg10 mi
11:15 am83 °FBroken clouds.7 mph71%30.20 "Hg10 mi
10:35 am81 °FBroken clouds.6 mph76%30.20 "Hg10 mi
9:55 am80 °FMostly cloudy.5 mph79%30.20 "Hg10 mi
9:35 am79 °FOvercast.7 mph81%30.19 "Hg10 mi
8:35 am78 °FLow clouds.8 mph88%30.17 "Hg10 mi
8:15 am77 °FLow clouds.7 mph89%30.17 "Hg10 mi
7:35 am76 °FLow clouds.6 mph94%30.15 "Hg10 mi
7:15 am75 °FLow clouds.No wind94%30.14 "Hg9 mi
6:55 am75 °FLow clouds.3 mph95%30.14 "Hg10 mi
6:15 am75 °FPassing clouds.5 mph94%30.13 "Hg10 mi
5:55 am75 °FPassing clouds.6 mph94%30.12 "Hg10 mi
5:35 am76 °FPassing clouds.5 mph93%30.11 "Hg10 mi
5:15 am75 °FPassing clouds.5 mph93%30.11 "Hg10 mi
4:55 am76 °FPassing clouds.6 mph92%30.11 "Hg10 mi
4:35 am76 °FOvercast.5 mph92%30.10 "Hg10 mi
4:15 am76 °FPassing clouds.5 mph92%30.10 "Hg10 mi
3:35 am76 °FPassing clouds.7 mph90%30.10 "Hg10 mi
3:15 am76 °FPassing clouds.7 mph89%30.10 "Hg10 mi
2:35 am77 °FMostly cloudy.6 mph87%30.10 "Hg10 mi
2:15 am77 °FOvercast.7 mph86%30.11 "Hg10 mi
1:55 am78 °FOvercast.7 mph84%30.11 "Hg10 mi
1:35 am78 °FOvercast.6 mph84%30.12 "Hg10 mi
1:15 am78 °FMostly cloudy.5 mph84%30.12 "Hg10 mi
12:55 am78 °FPartly cloudy.6 mph83%30.12 "Hg10 mi
12:35 am78 °FPassing clouds.5 mph83%30.12 "Hg10 mi
12:15 am78 °FPassing clouds.6 mph81%30.13 "Hg10 mi
11:55 pm
Wed, Jun 19
78 °FPassing clouds.6 mph81%30.13 "Hg10 mi
11:35 pm78 °FPassing clouds.6 mph80%30.13 "Hg10 mi
11:15 pm78 °FPassing clouds.6 mph79%30.12 "Hg10 mi
10:55 pm78 °FPassing clouds.3 mph79%30.12 "Hg10 mi
10:35 pm78 °FPassing clouds.3 mph78%30.12 "Hg10 mi
9:55 pm78 °FPassing clouds.3 mph77%30.11 "Hg10 mi
9:35 pm77 °FPassing clouds.3 mph77%30.10 "Hg10 mi
8:55 pm78 °FMostly cloudy.No wind75%30.09 "Hg10 mi
8:35 pm78 °FPartly sunny.No wind73%30.08 "Hg10 mi
8:15 pm79 °FPartly sunny.5 mph72%30.08 "Hg10 mi
7:55 pm80 °FBroken clouds.3 mph71%30.08 "Hg10 mi
7:35 pm80 °FScattered clouds.3 mph72%30.08 "Hg10 mi
7:15 pm80 °FScattered clouds.3 mph71%30.08 "Hg10 mi
6:55 pm80 °FPassing clouds.3 mph70%30.08 "Hg10 mi
6:35 pm80 °FScattered clouds.3 mph71%30.07 "Hg10 mi
5:55 pm80 °FPartly sunny.3 mph69%30.07 "Hg10 mi
5:35 pm80 °FScattered clouds.6 mph68%30.08 "Hg10 mi
5:15 pm81 °FScattered clouds.6 mph68%30.08 "Hg10 mi
4:35 pm82 °FPassing clouds.8 mph65%30.08 "Hg10 mi
4:15 pm83 °FPassing clouds.7 mph64%30.08 "Hg10 mi
Weather by CustomWeather, © 2024

See weather overview